Volver al catálogo

STARLINK-37436

ActivoComunicacionesVLEO
NORAD 69365·PAYLOAD·🇺🇸 United States

Lanzado Jun 4, 2026 desde Cape Canaveral Space Force Station

Loading…

Próximos Pases (próximas 24 horas)

TLE

ActualizadoSource: CelesTrak SupGP

Época: Sep 15, 2026, 02:59 UTC

1 69365C 26123N   26258.12479167 -.00019579  00000+0 -57848-3 0  2588
2 69365  53.1584 166.6923 0001248  78.4464  39.2704 15.34400116    19

Sigue STARLINK-37436 en tiempo real con AllMySat

Download on the App Store